Regional Weather Roundup
Issued by NWS Grand Forks, ND

Home | Current Version | Previous Version | Graphics & Text | Print | Product List | Glossary On
Versions: 1 2 3 4 5 6 7 8 9 10 11 12 13 14 15 16 17 18 19 20 21 22 23 24 25 26 27 28 29 30 31 32 33 34 35 36 37 38 39 40 41 42 43 44 45 46 47 48 49 50
000
ASUS43 KFGF 301731
RWRFGF
PRAIRIE TO PINES  WEATHER ROUNDUP
NATIONAL WEATHER SERVICE EASTERN NORTH DAKOTA/GRAND FORKS ND
1200 PM CDT THU JUL 30 2015

 **SATELLITE DATA USED TO AUGMENT SKY COVER AT AUTOMATED STATIONS**
 *****  WEATHER ACROSS EASTERN NORTH DAKOTA  *****

CITY           SKY/WX    TMP DP  RH WIND       PRES   REMARKS
GRAND FORKS    MOSUNNY   79  55  43 NW17G24   30.00S
GRAND FRKS AFB SUNNY     78  57  47 NW16      30.02S
GRAND FRKS NWS   N/A     77 N/A N/A NW15        N/A
DEVILS LAKE    SUNNY     75  55  50 W15G21    30.06S
FARGO          MOSUNNY   78  57  48 W13       30.05F
WAHPETON ARPT  SUNNY     79  48  34 N8        30.08S
$$

 ***** WEATHER ACROSS CENTRAL AND WESTERN NORTH DAKOTA  *****

CITY           SKY/WX    TMP DP  RH WIND       PRES   REMARKS
BISMARCK       SUNNY     79  52  38 N13       30.15S
MINOT          SUNNY     76  52  43 W14       30.12S
JAMESTOWN      SUNNY     76  55  48 W13       30.11S
MINOT AFB      SUNNY     77  55  45 NW13      30.10S
GARRISON         N/A     74  54  49 NW16      30.15S
WILLISTON      SUNNY     78  49  35 NW13      30.19R
DICKINSON      SUNNY     79  46  31 NW14      30.19R
HETTINGER      SUNNY     82  45  27 W10       30.21S
$$

 *****  OTHER AIRPORT OBSERVATIONS IN OUR AREA  *****

CITY           SKY/WX    TMP DP  RH WIND       PRES   REMARKS
WALHALLA       FAIR      77  55  47 MISG      29.99S
GRAFTON AIRPOR FAIR      77  55  47 NW21      30.00S
VALLEY CITY AR FAIR      75  59  57 W14       30.10S
CANDO          FAIR      75  57  53 NW15      30.07S
CAVALIER APRT  FAIR      77  57  50 W13G18    29.98S
GWINNER        FAIR      79  57  47 W7        30.11S
SHEYENNE NWR     N/A     79  58  47 NW7       29.95S
ROLLA            N/A     72  54  53 NW18G28   30.08R
 ***** THE ABOVE OBSERVATIONS ARE NON NWS ARE NOT QUALITY
       CONTROLLED AND MAY MIS-REPORT RAIN FOR SNOW...
$$

  *****  WEATHER ACROSS NORTHERN MINNESOTA  *****

CITY           SKY/WX    TMP DP  RH WIND       PRES   REMARKS
FLAG ISLAND    MOSUNNY   73  57  56 W14       29.89S
WARROAD        SUNNY     75  63  64 W12G22    29.93S
ROSEAU         SUNNY     75  63  64 W14G22    29.94S
HALLOCK        SUNNY     79  55  44 NW15      29.96S
THF RVR FALLS  SUNNY     75  57  53 W10G20    30.00S
BAUDETTE       MOSUNNY   74  57  55 W15G23    29.92S
WASKISH        MOSUNNY   73  63  68 SW14      29.96S
CROOKSTON      SUNNY     79  55  44 NW17G23   30.01S
$$
  *****  WEATHER ACROSS CENTRAL AND WEST MINNESOTA  *****

CITY           SKY/WX    TMP DP  RH WIND       PRES   REMARKS
FOSSTON        SUNNY     73  57  56 W12G17    30.02F
BEMIDJI        SUNNY     76  56  48 W21G26    30.00S
PARK RAPIDS    PTSUNNY   78  54  43 NW20      30.04S
ELBOW LAKE     FAIR      76  60  57 NW8G16    30.09S
WADENA         MOSUNNY   75  54  46 W15G21    30.06S
DETROIT LAKES  SUNNY     75  57  53 NW14G20   30.07S
MOORHEAD       MOSUNNY   75  61  60 NW12G18   30.06S
FERGUS FALLS   MOSUNNY   77  57  50 NW12G17   30.07F
MORRIS MN      SUNNY     79  59  50 W13       30.10S
STAPLES        MOSUNNY   79  54  41 W14G24    30.05S
$$
  *****  WEATHER ELSEWHERE ACROSS MINNESOTA  *****

CITY           SKY/WX    TMP DP  RH WIND       PRES   REMARKS
DULUTH         MOSUNNY   78  58  49 W16G23    29.96S
INTRNTL FALLS  MOSUNNY   72  59  63 W12       29.92R
ELY            PTSUNNY   73  54  49 W16G23    29.92F
CLOQUET        PTSUNNY   79  54  41 W14G24    29.97S
WHEATON        SUNNY     77  59  53 NW8       30.11S
BRAINERD       MOSUNNY   78  55  44 W14G29    30.03S
HIBBING        MOSUNNY   75  58  55 W12G22    29.95S
ALEXANDRIA     SUNNY     77  57  50 NW15      30.11R
SAINT CLOUD    SUNNY     80  57  45 NW17G24   30.06R
MINNEAPOLIS    SUNNY     82  57  42 W15       30.05R
$$

  *****  WEATHER ACROSS SOUTH DAKOTA  *****

CITY           SKY/WX    TMP DP  RH WIND       PRES   REMARKS
SIOUX FALLS    SUNNY     81  63  54 VRB5      30.15S
BROOKINGS      SUNNY     81  54  39 W6        30.17R
WATERTOWN      SUNNY     80  52  37 W7        30.15S
HURON          SUNNY     81  58  45 CALM      30.14S
SISSETON         N/A     79  57  46 NW12      30.10R
ABERDEEN       SUNNY     80  61  52 SE7       30.12S
MITCHELL       SUNNY     83  54  36 CALM      30.16R
PIERRE         SUNNY     83  50  31 SW5       30.16S
MOBRIDGE       SUNNY     83  57  41 W5        30.13S
RAPID CITY     SUNNY     82  45  27 NW7       30.27R
$$

  *****  SOME WEATHER IN NEARBY STATES *****

CITY           SKY/WX    TMP DP  RH WIND       PRES   REMARKS
GLASGOW MT     SUNNY     76  51  41 NW8       30.22S
GREAT FALLS MT SUNNY     77  42  28 S8        30.28F
CHEYENNE WY    SUNNY     76  45  33 N13       30.42R
SCOTTSBLUFF NE SUNNY     78  55  44 CALM      30.30S
OMAHA NE       MOSUNNY   86  55  34 VRB6      30.20S
DES MOINES IA  MOSUNNY   85  58  39 W15       30.17S
DAVENPORT IA   SUNNY     82  66  58 W6        30.13S
CHICAGO IL     MOSUNNY   85  53  33 NW21      30.06S
EAU CLAIRE WI  SUNNY     81  58  45 W16       30.02R
LA CROSSE WI   SUNNY     84  57  39 W13       30.05R
$$

  *****  SOME NATIONAL WEATHER *****

CITY           SKY/WX    TMP DP  RH WIND       PRES   REMARKS
LA GUARDIA NY  PTSUNNY   86  72  62 SE14G20   29.85F HX  92
RALEIGH NC     MOSUNNY   90  73  57 W5        29.97F HX  98
ATLANTA GA     MOSUNNY   91  73  55 CALM      30.02S HX  99
NEW ORLEANS LA PTSUNNY   91  74  57 N9        30.01S HX 100
OKLAHOMA CITY  PTSUNNY   91  71  51 MISG      30.16R HX  97
ALBUQUERQUE NM PTSUNNY   72  60  66 NW5       30.39F
SALT LAKE CITY MOSUNNY   78  36  21 N12       30.30S
LOS ANGELES CA PTSUNNY   71  65  81 W8        30.02S
BOISE ID       SUNNY     81  34  18 SE6       30.24F
SEATTLE WA     SUNNY     77  52  41 N3        30.11F
$$

*** WEATHER ACROSS MANITOBA...SASKATCHEWAN AND ONTARIO ***
                ***ONTARIO***

CITY           SKY/WX    TMP DP  RH WIND       PRES   REMARKS
GERALDTON      PTSUNNY   66  52  59 W13G35    29.69S
THUNDER BAY    MOSUNNY   75  54  46 W17G28    29.81S
SIOUX LOOKOUT  MOSUNNY   70  55  60 W15G22    29.82S
TORONTO        PTSUNNY   84  55  37 W20G31    29.84F
BIG TROUT LK   CLOUDY    57  54  88 NW18G33   29.55R
PICKLE LAKE    CLOUDY    63  54  72 W18G29    29.69S
DRYDEN         CLOUDY    66  57  72 W15G23    29.86S
KENORA         PTSUNNY   72  61  68 SW9       29.89
$$
                *** MANITOBA***

CITY           SKY/WX    TMP DP  RH WIND       PRES   REMARKS
BRANDON        MOSUNNY   75  55  50 NW21G26   30.01S
DAUPHIN        SUNNY     73  57  56 NW17G26   29.94S
ISLAND LAKE    PTSUNNY   66  54  63 W10       29.74R
PILOT MOUND      N/A     73  59  60 NW13G20     N/A
THE PAS        MOSUNNY   72  59  64 NW12G20   29.86S THUNDER
THOMPSON       PTSUNNY   64  55  72 NW7       29.80
WINNIPEG       MOSUNNY   75  61  60 W15G24    29.93R
LYNN LAKE        N/A    N/A N/A N/A MISG        N/A
CHURCHILL      PTSUNNY   54  52  94 N20G26    29.66S
GILLAM         PTSUNNY   63  54  72 N16G25    29.70S
$$
                ***SASKATCHEWAN***

CITY           SKY/WX    TMP DP  RH WIND       PRES   REMARKS
ESTEVAN        MOSUNNY   73  54  49 W22       30.16R
KINDERSLEY     MOSUNNY   72  50  46 W8        30.19
LLOYDMINSTER   MOSUNNY   68  46  45 W15G22    30.14
PRINCE ALBERT  MOSUNNY   70  52  52 NW16G26   30.04S
REGINA         MOSUNNY   72  52  49 NW16G23   30.16R
YORKTON        SUNNY     70  54  56 W22G29    30.04R
N. BATTLEFORD  PTSUNNY   70  46  43 NW16G23   30.14S
LA RONGE       PTSUNNY   68  54  60 W12G24    29.95R
SASKATOON      MOSUNNY   72  46  40 NW17G28   30.13S
SWIFT CURRENT  MOSUNNY   72  45  37 W6        30.22F
$$
NOTE: THESE ARE AUTOMATED STATIONS WITH LIMITED QUALITY CONTROL
      "FAIR" INDICATES FEW OR NO CLOUDS BELOW 12,000 FEET WITH NO
      SIGNIFICANT WEATHER AND/OR OBSTRUCTIONS TO VISIBILITY.
      SKY/WX - SKY CONDITION AND SIGNIFICANT WEATHER.
      TMP - AIR TEMPERATURE.    DP   - DEWPOINT TEMPERATURE.
      RH  - RELATIVE HUMIDITY.  PRES - PRESSURE.
      HX  - HEAT INDEX.         WCI  - WIND CHILL INDEX.
$


USA.gov is the U.S. government's official web portal to all federal, state and local government web resources and services.